Location: Unspecified
(41.5000°N, 0.0000°E)
Time: 16:13:17
(UTC+00:00)

Vanguard 2 - Pass Details

Date: 20 June 2019
Orbit: 553 x 2938 km, 32.9° (Epoch: 19 July)

Event Time Altitude Azimuth Distance (km) Brightness Sun altitude
Rises 11:29:41 0° 262° (W) 3,965 11.1 70.7°
Reaches altitude 10° 11:32:04 10° 257° (WSW) 3,255 10.8 70.9°
Maximum altitude 11:40:14 51° 184° (S) 2,131 11.4 71.4°
Drops below altitude 10° 11:53:33 10° 114° (ESE) 5,157 12.0 71.9°
Sets 11:58:23 0° 111° (ESE) 6,438 12.3 71.9°
